Showing default

ATS 1, 2608

Orbit data source: Space-Track

ATS 1, 2608 is a payload satellite owned by GSFC (US) in GEO that was launched on Wed, 07 Dec 1966 UTC via an ATLAS SLV-3 AGENA D launch vehicle from the Air Force Eastern Test Range (AFETR). Payload-class satellites include a variety of spacecraft equipped with specific instruments for various scientific and technological missions. These include communications satellites like Starlink; space stations such as the ISS; scientific satellites like the Hubble; Earth observation satellites from companies like Planet Labs, Umbra, and HawkEye 360; GPS; miniature CubeSats for education and research; and military/defense satellites.

Not visible in the next 10 days
Identifier
2608, 1966-110A
Orbit
GEO
Country
Flag of USUS
Related business
Manufacturer
Hughes
Mission
Non-operational spacecraft
Bus & Motor
HS-306, SR-28-3
Mass
714 kg wet, 266 kg dry
Launch date (UTC)
1966-12-07 (59 years ago)
Launch vehicle
ATLAS SLV-3 AGENA D
Launch site
Air Force Eastern Test Range (AFETR)
Object type
Payload
Rocket body
Debris
Shape & HBR
Unknown
Radar Cross Section
Large (>1 m²)

Expand to show TLE details & history
Last TLE update: 13 hours ago

TLE from 13 hours ago
0 ATS 1
1  2608U 66110A   25294.92504321 -.00000239  00000-0  00000+0 0  9992
2  2608   4.3742  72.1671 0007558 176.3865 204.4171  1.00397681132418
Epoch: 2025-10-21T22:12Z
TLE epoch observation values (Epoch: 2025-10-21T22:12:03.733Z)
Latitude
1.53798°
Longitude
89.22642°
Altitude
35,779.616 km
Speed
3.074 km/s
True Right ascension
06h 11m 23s
True Declination
1° 32' 11"
Sunlit
Object was in daylight at epoch
Visualization orbit readout
Latitude
Unknown
Longitude
Unknown
Altitude
Unknown
Speed
Unknown
Apparent Right ascension
Unknown
Apparent Declination
Unknown
Sunlit
N/A
Visualization observer readout
Local Sidereal Time
06:38:19
Azimuth
Unknown
Elevation
Unknown
Doppler factor
Unknown
Orbital elements
Apogee altitude
35,784.243 km
Perigee altitude
35,720.558 km
Semi-major axis
42,130.538 km
Eccentricity
0.00076
Inclination
4.3742°
RAAN
72.1671°
Arg. of periapsis
176.3865°
True anomaly
204.38133°
Mean anomaly
204.4171°
Eccentric anomaly
204.39921°
Mean motion
0.25098 °/min
Orbital period
1,434.35 mins
BSTAR
0
Loading maneuver chart data...
Computing Atmospheric mass density...
Loading historical data...
Loading historical data...
Loading historical data...
Loading historical data...
Loading historical data...
Loading historical data...
Loading historical data...
Other satellites on launch #110 in the year 1966 (1966-12-07 UTC)

Documentation

Showing up to 5 results
|